Perryton, TX

11:45 PM CST on January 19, 2018 (GMT -0600)
Perryton Ochiltree County

Weather History for KPYX - January, 2013

Change the Weather History Date:

Tuesday, January 8, 2013

  Actual Average Record
Temperature  
Mean Temperature 42 °F -  
Max Temperature 55 °F 42 °F 75 °F (1965)
Min Temperature 30 °F 14 °F -10 °F (1988)
Degree Days  
Heating Degree Days 22    
Moisture  
Dew Point 29 °F    
Average Humidity 70    
Maximum Humidity 87    
Minimum Humidity 41    
Precipitation  
Precipitation 0.00 in - - ()
Sea Level Pressure  
Sea Level Pressure 29.98 in    
Wind  
Wind Speed 11 mph (SW)    
Max Wind Speed 21 mph    
Max Gust Speed 26 mph    
Visibility 10 miles    
Events      
Averages and records for this station are not official NWS values.
T = Trace of Precipitation, MM = Missing Value Source: NWS Daily Summary

Daily Weather History Graph

Daily Weather History Graph

Search for Another Location

Airport or City:

Trip Planner

Search our weather history database for the weather conditions in past years. The results will help you decide how hot, cold, wet, or windy it might be!

Date:

Astronomy

Jan. 08, 2013 Rise Set
Actual Time 7:55 AM CST 5:44 PM CST
Civil Twilight 7:26 AM CST 6:13 PM CST
Nautical Twilight 6:54 AM CST 6:45 PM CST
Astronomical Twilight 6:23 AM CST 7:16 PM CST
Moon 4:30 AM CST (1/8) 2:48 PM CST (1/8)
Length of Visible Light 10h 46m
Length of Day
9h 49m
Waning Crescent, 13% of the Moon is Illuminated
Jan 8
Waning Crescent
Jan 11
New
Jan 18
First Quarter
Jan 26
Full
Feb 3
Last Quarter

Hourly Weather History & Observations

Time (CST) Temp. Windchill Dew Point Humidity Pressure Visibility Wind Dir Wind Speed Gust Speed Precip Events Conditions
12:15 AM 32.0 °F 24.2 °F 26.6 °F 80% 29.94 in 10.0 mi SSW 9.2 mph - N/A   Clear
12:35 AM 32.0 °F 24.2 °F 26.6 °F 80% 29.94 in 10.0 mi South 9.2 mph - N/A   Clear
12:55 AM 32.0 °F 23.6 °F 26.6 °F 80% 29.93 in 10.0 mi South 10.4 mph - N/A   Clear
1:15 AM 32.0 °F 23.6 °F 26.6 °F 80% 29.93 in 10.0 mi South 10.4 mph - N/A   Clear
1:35 AM 32.0 °F 23.6 °F 26.6 °F 80% 29.92 in 10.0 mi South 10.4 mph - N/A   Clear
1:55 AM 32.0 °F 23.6 °F 26.6 °F 80% 29.93 in 10.0 mi SSW 10.4 mph - N/A   Clear
2:15 AM 32.0 °F 24.2 °F 26.6 °F 80% 29.93 in 10.0 mi SSW 9.2 mph - N/A   Clear
2:35 AM 32.0 °F 22.5 °F 26.6 °F 80% 29.92 in 10.0 mi SSW 12.7 mph - N/A   Clear
2:55 AM 32.0 °F 23.6 °F 26.6 °F 80% 29.92 in 10.0 mi SSW 10.4 mph - N/A   Clear
3:15 AM 32.0 °F 25.6 °F 26.6 °F 80% 29.92 in 10.0 mi South 6.9 mph - N/A   Clear
3:35 AM 32.0 °F 27.5 °F 26.6 °F 80% 29.92 in 10.0 mi South 4.6 mph - N/A   Clear
3:55 AM 30.2 °F 24.3 °F 24.8 °F 80% 29.93 in 10.0 mi South 5.8 mph - N/A   Clear
4:15 AM 30.2 °F 22.6 °F 24.8 °F 80% 29.93 in 10.0 mi SSW 8.1 mph - N/A   Clear
4:35 AM 30.2 °F 22.6 °F 26.6 °F 86% 29.93 in 10.0 mi South 8.1 mph - N/A   Clear
4:55 AM 30.2 °F 21.9 °F 24.8 °F 80% 29.91 in 10.0 mi South 9.2 mph - N/A   Clear
5:15 AM 30.2 °F 22.6 °F 26.6 °F 86% 29.91 in 10.0 mi South 8.1 mph - N/A   Clear
5:35 AM 30.2 °F 21.9 °F 26.6 °F 86% 29.91 in 10.0 mi SSW 9.2 mph - N/A   Clear
5:55 AM 30.2 °F 21.9 °F 26.6 °F 86% 29.91 in 10.0 mi SSW 9.2 mph - N/A   Clear
6:15 AM 32.0 °F 23.6 °F 26.6 °F 80% 29.91 in 10.0 mi SSW 10.4 mph - N/A   Clear
6:35 AM 32.0 °F 23.6 °F 26.6 °F 80% 29.91 in 10.0 mi South 10.4 mph - N/A   Clear
6:55 AM 32.0 °F 22.5 °F 26.6 °F 80% 29.91 in 10.0 mi South 12.7 mph - N/A   Clear
7:15 AM 32.0 °F 22.5 °F 26.6 °F 80% 29.90 in 10.0 mi South 12.7 mph - N/A   Clear
7:35 AM 32.0 °F 22.1 °F 26.6 °F 80% 29.90 in 10.0 mi South 13.8 mph - N/A   Clear
7:55 AM 32.0 °F 23.6 °F 28.4 °F 87% 29.91 in 10.0 mi SSW 10.4 mph - N/A   Clear
8:15 AM 33.8 °F 25.3 °F 28.4 °F 81% 29.92 in 10.0 mi SSW 11.5 mph - N/A   Clear
8:35 AM 33.8 °F 24.3 °F 28.4 °F 81% 29.92 in 10.0 mi SSW 13.8 mph - N/A   Clear
8:55 AM 35.6 °F 26.6 °F 28.4 °F 75% 29.93 in 10.0 mi SSW 13.8 mph - N/A   Clear
9:15 AM 35.6 °F 27.1 °F 30.2 °F 81% 29.93 in 10.0 mi South 12.7 mph - N/A   Clear
9:35 AM 37.4 °F 29.3 °F 30.2 °F 75% 29.94 in 10.0 mi SSW 12.7 mph 18.4 mph N/A   Clear
9:55 AM 39.2 °F 30.5 °F 30.2 °F 70% 29.94 in 10.0 mi SSW 16.1 mph 19.6 mph N/A   Clear
10:15 AM 41.0 °F 31.9 °F 30.2 °F 65% 29.96 in 10.0 mi SSW 19.6 mph 23.0 mph N/A   Clear
10:35 AM 42.8 °F 35.1 °F 30.2 °F 61% 29.96 in 10.0 mi SW 16.1 mph 23.0 mph N/A   Clear
11:15 AM 46.4 °F 38.7 °F 32.0 °F 57% 29.95 in 10.0 mi SW 20.7 mph 26.5 mph N/A   Clear
11:35 AM 48.2 °F - 32.0 °F 54% 29.94 in 10.0 mi WSW 19.6 mph 23.0 mph N/A   Clear
11:55 AM 50.0 °F - 32.0 °F 50% 29.94 in 10.0 mi SW 17.3 mph - N/A   Clear
12:15 PM 50.0 °F - 32.0 °F 50% 29.93 in 10.0 mi SSW 17.3 mph - N/A   Clear
12:35 PM 51.8 °F - 32.0 °F 47% 29.92 in 10.0 mi SSW 18.4 mph 23.0 mph N/A   Clear
12:55 PM 51.8 °F - 32.0 °F 47% 29.93 in 10.0 mi WSW 13.8 mph 20.7 mph N/A   Clear
1:15 PM 53.6 °F - 32.0 °F 44% 29.94 in 10.0 mi WSW 15.0 mph - N/A   Clear
1:35 PM 53.6 °F - 32.0 °F 44% 29.94 in 10.0 mi West 15.0 mph - N/A   Clear
1:55 PM 53.6 °F - 32.0 °F 44% 29.93 in 10.0 mi WSW 11.5 mph - N/A   Clear
2:15 PM 53.6 °F - 32.0 °F 44% 29.93 in 10.0 mi WSW 13.8 mph 19.6 mph N/A   Clear
2:35 PM 53.6 °F - 32.0 °F 44% 29.93 in 10.0 mi SW 16.1 mph - N/A   Clear
2:55 PM 55.4 °F - 32.0 °F 41% 29.92 in 10.0 mi SW 12.7 mph 17.3 mph N/A   Clear
3:15 PM 55.4 °F - 32.0 °F 41% 29.94 in 10.0 mi SW 11.5 mph - N/A   Clear
3:35 PM 55.4 °F - 32.0 °F 41% 29.95 in 10.0 mi SW 12.7 mph - N/A   Clear
3:55 PM 55.4 °F - 32.0 °F 41% 29.96 in 10.0 mi SW 10.4 mph - N/A   Clear
4:15 PM 55.4 °F - 32.0 °F 41% 29.97 in 10.0 mi SW 10.4 mph - N/A   Clear
4:35 PM 55.4 °F - 32.0 °F 41% 29.98 in 10.0 mi WSW 8.1 mph - N/A   Clear
4:55 PM 53.6 °F - 32.0 °F 44% 29.99 in 10.0 mi SW 8.1 mph - N/A   Clear
5:15 PM 51.8 °F - 32.0 °F 47% 30.00 in 10.0 mi SW 5.8 mph - N/A   Clear
5:35 PM 50.0 °F - 32.0 °F 50% 30.00 in 10.0 mi SW 4.6 mph - N/A   Clear
5:55 PM 46.4 °F 41.9 °F 32.0 °F 57% 30.01 in 10.0 mi North 9.2 mph - N/A   Clear
6:35 PM 41.0 °F 35.2 °F 32.0 °F 70% 30.02 in 10.0 mi NNE 9.2 mph - N/A   Clear
6:55 PM 37.4 °F 29.8 °F 32.0 °F 81% 30.04 in 10.0 mi North 11.5 mph - N/A   Clear
7:15 PM 37.4 °F 29.3 °F 32.0 °F 81% 30.05 in 10.0 mi North 12.7 mph - N/A   Clear
7:35 PM 37.4 °F 30.3 °F 30.2 °F 75% 30.06 in 10.0 mi North 10.4 mph - N/A   Clear
7:55 PM 35.6 °F 27.5 °F 30.2 °F 81% 30.07 in 10.0 mi North 11.5 mph - N/A   Clear
8:15 PM 33.8 °F 28.6 °F 28.4 °F 81% 30.09 in 10.0 mi NNE 5.8 mph - N/A   Clear
8:35 PM 33.8 °F 28.6 °F 28.4 °F 81% 30.11 in 10.0 mi NNE 5.8 mph - N/A   Clear
8:55 PM 32.0 °F 25.6 °F 28.4 °F 87% 30.11 in 10.0 mi North 6.9 mph - N/A   Clear
9:15 PM 32.0 °F 24.8 °F 28.4 °F 87% 30.12 in 10.0 mi NNE 8.1 mph - N/A   Clear
9:35 PM 32.0 °F 28.7 °F 28.4 °F 87% 30.15 in 10.0 mi East 3.5 mph - N/A   Clear
9:55 PM 32.0 °F 24.8 °F 28.4 °F 87% 30.14 in 10.0 mi North 8.1 mph - N/A   Clear
10:15 PM 32.0 °F 23.6 °F 28.4 °F 87% 30.13 in 10.0 mi North 10.4 mph - N/A   Clear
10:35 PM 32.0 °F 24.2 °F 28.4 °F 87% 30.14 in 10.0 mi North 9.2 mph - N/A   Clear
10:55 PM 32.0 °F 26.4 °F 28.4 °F 87% 30.15 in 10.0 mi NNE 5.8 mph - N/A   Clear
11:15 PM 32.0 °F 27.5 °F 28.4 °F 87% 30.18 in 10.0 mi North 4.6 mph - N/A   Clear
11:35 PM 30.2 °F 21.9 °F 26.6 °F 86% 30.17 in 10.0 mi North 9.2 mph - N/A   Clear